Weather History for Osceola Municipal, IA

Change the Weather History Date:

Sunday, October 6, 2013

  Actual Average (KLWD) Record (KLWD)
Temperature  
Mean Temperature 44 °F 57 °F  
Max Temperature 48 °F 68 °F 92 °F (1963)
Min Temperature 41 °F 46 °F 27 °F (2012)
Degree Days  
Heating Degree Days 20 9  
Month to date heating degree days 50  
Since 1 July heating degree days 150  
Cooling Degree Days 0 1  
Month to date cooling degree days 6  
Year to date cooling degree days 939  
Moisture  
Dew Point 40 °F    
Average Humidity 83    
Maximum Humidity 92    
Minimum Humidity 58    
Precipitation  
Precipitation 0.04 in 0.06 in 0.83 in (1948)
Month to date precipitation 0.38  
Sea Level Pressure  
Sea Level Pressure 29.81 in    
Wind  
Wind Speed 10 mph (West)    
Max Wind Speed 18 mph    
Max Gust Speed 25 mph    
Visibility 9 miles    
Events Rain    
T = Trace of Precipitation, MM = Missing Value Source: NWS Daily Summary

Daily Weather History Graph

Daily Weather History Graph

Search for Another Location

Airport:

Trip Planner

Search our weather history database for the weather conditions in past years. The results will help you decide how hot, cold, wet, or windy it might be!

Date:

Astronomy

Oct. 06, 2013 Rise Set
Actual Time 7:16 AM CDT 6:47 PM CDT
Civil Twilight 6:49 AM CDT 7:15 PM CDT
Nautical Twilight 6:17 AM CDT 7:47 PM CDT
Astronomical Twilight 5:45 AM CDT 8:19 PM CDT
Moon 9:03 AM CDT (10/6) 7:46 PM CDT (10/6)
Length of Visible Light 12h 26m
Length of Day
11h 31m
Waxing Crescent, 3% of the Moon is Illuminated
Oct 6
Waxing Crescent
Oct 11
First Quarter
Oct 18
Full
Oct 26
Last Quarter
Nov 3
New

Hourly Weather History & Observations

Time (CDT) Temp. Windchill Dew Point Humidity Pressure Visibility Wind Dir Wind Speed Gust Speed Precip Events Conditions
12:15 AM 45.9 °F 42.9 °F 34.0 °F 63% 29.81 in 10.0 mi SW 5.8 mph - N/A   Overcast
12:35 AM 46.4 °F 41.5 °F 32.4 °F 58% 29.79 in 10.0 mi WSW 10.4 mph 19.6 mph N/A   Overcast
12:55 AM 46.0 °F 41.0 °F 32.9 °F 60% 29.79 in 10.0 mi SW 10.4 mph 16.1 mph N/A   Overcast
1:15 AM 45.9 °F 39.4 °F 32.9 °F 61% 29.79 in 10.0 mi SW 15.0 mph 19.6 mph N/A   Overcast
1:35 AM 45.5 °F 38.9 °F 32.5 °F 61% 29.79 in 10.0 mi WSW 15.0 mph 20.7 mph N/A   Overcast
1:55 AM 44.6 °F 38.4 °F 32.5 °F 63% 29.79 in 10.0 mi WSW 12.7 mph 18.4 mph N/A   Overcast
2:15 AM 44.2 °F 36.7 °F 33.1 °F 65% 29.79 in 10.0 mi WSW 17.3 mph - N/A   Overcast
2:35 AM 44.1 °F 38.1 °F 33.3 °F 66% 29.78 in 10.0 mi WSW 11.5 mph 18.4 mph N/A   Overcast
2:55 AM 43.9 °F 40.5 °F 33.6 °F 67% 29.77 in 10.0 mi WSW 5.8 mph - N/A   Overcast
3:15 AM 43.9 °F 39.9 °F 34.0 °F 68% 29.77 in 10.0 mi SW 6.9 mph - N/A   Overcast
3:35 AM 43.7 °F 38.6 °F 33.8 °F 68% 29.76 in 10.0 mi SW 9.2 mph - N/A   Overcast
3:55 AM 43.7 °F 39.7 °F 34.2 °F 69% 29.76 in 10.0 mi SW 6.9 mph - N/A   Overcast
4:15 AM 43.7 °F 38.1 °F 34.7 °F 71% 29.76 in 10.0 mi WSW 10.4 mph 18.4 mph N/A   Overcast
4:35 AM 42.8 °F 36.2 °F 35.6 °F 76% 29.76 in 10.0 mi West 12.7 mph 17.3 mph N/A   Overcast
4:55 AM 42.4 °F 36.5 °F 35.6 °F 77% 29.76 in 10.0 mi West 10.4 mph - N/A   Overcast
5:15 AM 42.3 °F 37.3 °F 36.3 °F 79% 29.75 in 10.0 mi WSW 8.1 mph - N/A   Overcast
5:35 AM 42.4 °F 37.5 °F 36.5 °F 79% 29.76 in 10.0 mi WSW 8.1 mph - N/A   Overcast
5:55 AM 42.4 °F 38.1 °F 36.3 °F 79% 29.77 in 10.0 mi WSW 6.9 mph - N/A   Overcast
6:15 AM 42.1 °F 36.6 °F 36.5 °F 81% 29.77 in 7.0 mi WSW 9.2 mph - N/A   Overcast
6:35 AM 41.2 °F 38.2 °F 37.8 °F 88% 29.77 in 10.0 mi SW 4.6 mph - N/A   Overcast
6:55 AM 41.0 °F 39.0 °F 38.3 °F 90% 29.77 in 10.0 mi SW 3.5 mph - N/A   Overcast
7:15 AM 41.4 °F 39.4 °F 38.5 °F 89% 29.77 in 10.0 mi SSW 3.5 mph - N/A   Overcast
7:35 AM 41.4 °F 38.4 °F 38.7 °F 90% 29.77 in 10.0 mi WSW 4.6 mph - N/A   Overcast
7:55 AM 41.5 °F 36.4 °F 38.7 °F 89% 29.78 in 10.0 mi West 8.1 mph - N/A   Overcast
8:15 AM 41.5 °F 37.8 °F 38.7 °F 89% 29.78 in 3.0 mi West 5.8 mph - N/A   Overcast
8:35 AM 41.2 °F 36.6 °F 38.3 °F 89% 29.77 in 10.0 mi West 6.9 mph - N/A   Overcast
8:55 AM 43.0 °F 39.5 °F 39.4 °F 87% 29.77 in 10.0 mi NW 5.8 mph - N/A   Mostly Cloudy
9:15 AM 43.5 °F 40.1 °F 38.1 °F 81% 29.78 in 10.0 mi West 5.8 mph - N/A   Overcast
9:35 AM 44.4 °F 40.0 °F 38.1 °F 79% 29.77 in 10.0 mi West 8.1 mph - N/A   Overcast
9:55 AM 44.6 °F 38.4 °F 37.4 °F 76% 29.78 in 10.0 mi West 12.7 mph - N/A   Overcast
10:15 AM 44.6 °F 38.8 °F 37.6 °F 76% 29.79 in 10.0 mi West 11.5 mph 17.3 mph N/A   Overcast
10:35 AM 44.1 °F 39.0 °F 37.4 °F 77% 29.79 in 10.0 mi West 9.2 mph - N/A   Overcast
10:55 AM 44.6 °F 38.4 °F 38.1 °F 78% 29.80 in 10.0 mi West 12.7 mph 17.3 mph N/A   Overcast
11:15 AM 43.5 °F 38.3 °F 39.2 °F 85% 29.81 in 5.0 mi West 9.2 mph - N/A   Light Drizzle
11:35 AM 43.7 °F 39.1 °F 39.9 °F 87% 29.81 in 10.0 mi West 8.1 mph - N/A   Light Drizzle
11:55 AM 43.9 °F 38.8 °F 39.7 °F 85% 29.81 in 10.0 mi West 9.2 mph - N/A   Light Drizzle
12:15 PM 44.1 °F 39.0 °F 40.1 °F 86% 29.81 in 10.0 mi West 9.2 mph - N/A   Light Drizzle
12:35 PM 44.1 °F 39.5 °F 41.0 °F 89% 29.81 in 2.5 mi West 8.1 mph - N/A   Light Drizzle
12:55 PM 43.9 °F 40.5 °F 41.2 °F 90% 29.81 in 7.0 mi WSW 5.8 mph - N/A Rain Light Rain
1:15 PM 44.8 °F 41.0 °F 41.5 °F 88% 29.79 in 10.0 mi WSW 6.9 mph - N/A Rain Light Rain
1:35 PM 45.5 °F 41.3 °F 42.6 °F 90% 29.79 in 10.0 mi WSW 8.1 mph - N/A Rain Light Rain
1:55 PM 46.2 °F 41.7 °F 43.2 °F 89% 29.78 in 10.0 mi WSW 9.2 mph - N/A   Light Drizzle
2:15 PM 46.9 °F - 43.7 °F 88% 29.78 in 10.0 mi WSW 11.5 mph 17.3 mph N/A Rain Light Rain
2:35 PM 47.3 °F - 44.4 °F 90% 29.77 in 7.0 mi WSW 9.2 mph - N/A Rain Rain
2:55 PM 46.9 °F - 44.6 °F 92% 29.77 in 3.0 mi WSW 5.8 mph - 0.01 in Rain Light Rain
3:15 PM 47.5 °F - 45.3 °F 92% 29.76 in 2.5 mi WSW 8.1 mph - 0.01 in Rain Light Rain
3:35 PM 48.2 °F - 45.7 °F 91% 29.76 in 4.0 mi West 15.0 mph 18.4 mph 0.02 in   Light Drizzle
3:55 PM 48.2 °F - 45.5 °F 90% 29.77 in 4.0 mi West 17.3 mph 23.0 mph 0.03 in   Light Drizzle
4:15 PM 48.2 °F - 45.5 °F 90% 29.77 in 7.0 mi West 15.0 mph 23.0 mph N/A   Light Drizzle
4:35 PM 48.4 °F - 45.7 °F 90% 29.78 in 7.0 mi West 16.1 mph 21.9 mph N/A   Light Drizzle
4:55 PM 48.4 °F - 45.5 °F 90% 29.79 in 7.0 mi West 18.4 mph 25.3 mph N/A   Overcast
5:15 PM 48.2 °F - 45.5 °F 90% 29.79 in 4.0 mi West 17.3 mph 23.0 mph N/A   Overcast
5:35 PM 48.2 °F - 45.7 °F 91% 29.81 in 10.0 mi West 12.7 mph 20.7 mph N/A   Overcast
5:55 PM 48.2 °F - 45.5 °F 90% 29.82 in 2.5 mi WNW 16.1 mph 23.0 mph N/A   Light Drizzle
6:15 PM 48.0 °F - 45.3 °F 90% 29.83 in 4.0 mi West 11.5 mph 21.9 mph N/A   Overcast
6:35 PM 47.8 °F - 45.3 °F 91% 29.83 in 7.0 mi West 12.7 mph 20.7 mph N/A   Overcast
6:55 PM 47.8 °F - 45.0 °F 90% 29.84 in 10.0 mi West 10.4 mph 23.0 mph N/A   Overcast
7:15 PM 47.8 °F - 45.0 °F 90% 29.85 in 10.0 mi WNW 12.7 mph 24.2 mph N/A   Overcast
7:35 PM 47.8 °F - 45.0 °F 90% 29.86 in 10.0 mi West 9.2 mph 16.1 mph N/A   Overcast
7:55 PM 47.8 °F - 45.3 °F 91% 29.87 in 10.0 mi West 15.0 mph 19.6 mph N/A   Overcast
8:15 PM 47.7 °F - 45.0 °F 90% 29.87 in 7.0 mi WNW 15.0 mph 24.2 mph N/A   Overcast
8:35 PM 47.7 °F - 44.6 °F 89% 29.88 in 10.0 mi WNW 15.0 mph 19.6 mph N/A   Overcast
8:55 PM 47.5 °F - 44.2 °F 89% 29.89 in 10.0 mi WNW 12.7 mph 20.7 mph N/A   Overcast
9:15 PM 47.7 °F - 44.2 °F 88% 29.89 in 10.0 mi WNW 10.4 mph - N/A   Overcast
9:35 PM 47.8 °F - 44.1 °F 87% 29.90 in 10.0 mi WNW 10.4 mph - N/A   Overcast
9:55 PM 47.8 °F - 44.1 °F 87% 29.90 in 10.0 mi WNW 10.4 mph 16.1 mph N/A   Overcast
10:15 PM 48.2 °F - 43.9 °F 85% 29.91 in 10.0 mi NW 10.4 mph 17.3 mph N/A   Overcast
10:35 PM 48.2 °F - 44.1 °F 86% 29.92 in 10.0 mi WNW 9.2 mph - N/A   Overcast
10:55 PM 48.2 °F - 43.9 °F 85% 29.92 in 10.0 mi NW 9.2 mph 16.1 mph N/A   Overcast
11:15 PM 48.2 °F - 44.1 °F 86% 29.92 in 10.0 mi WNW 10.4 mph - N/A   Overcast
11:35 PM 48.7 °F - 44.2 °F 84% 29.92 in 10.0 mi NW 9.2 mph - N/A   Overcast
11:55 PM 48.9 °F - 44.6 °F 85% 29.92 in 10.0 mi NW 11.5 mph 17.3 mph N/A   Overcast